| time (UTC) | temp F | wind direction | speed MPH | gust MPH | rain 1hr in | rain 24hr in | rain mn in | humidity % | barometer mb |
| 20260901075004 | 52 | 335 | 3.0 | 9.0 | 0.00 | 0.00 | 0.00 | 99 | 1020.3 |
| 20260901074008 | 51 | 320 | 4.0 | 9.0 | 0.00 | 0.00 | 0.00 | 99 | 1020.6 |
| 20260901072223 | 51 | 319 | 4.0 | 8.0 | 0.00 | 0.00 | 0.00 | 99 | 1020.3 |
| 20260901071008 | 50 | 329 | 3.0 | 9.0 | 0.00 | 0.00 | 0.00 | 99 | 1020.4 |
| 20260901070004 | 50 | 280 | 3.0 | 7.0 | 0.00 | 0.00 | 0.00 | 99 | 1020.5 |
| 20260901065008 | 49 | 269 | 1.0 | 5.0 | 0.00 | 0.00 | 0.00 | 99 | 1020.3 |
| 20260901064003 | 49 | 288 | 2.0 | 5.0 | 0.00 | 0.00 | 0.00 | 99 | 1020.4 |
| 20260901063003 | 49 | 237 | 2.0 | 5.0 | 0.00 | 0.00 | 0.00 | 99 | 1020.1 |
| 20260901062222 | 49 | 245 | 2.0 | 6.0 | 0.00 | 0.00 | 0.00 | 99 | 1020.0 |
| 20260901061006 | 49 | 297 | 2.0 | 6.0 | 0.00 | 0.00 | 0.00 | 99 | 1020.1 |
| 20260901060008 | 48 | 291 | 2.0 | 7.0 | 0.00 | 0.00 | 0.00 | 99 | 1020.1 |
| 20260901055008 | 48 | 276 | 2.0 | 7.0 | 0.00 | 0.00 | 0.00 | 99 | 1019.8 |
| 20260901054004 | 48 | 261 | 2.0 | 5.0 | 0.00 | 0.00 | 0.00 | 99 | 1019.8 |
| 20260901053003 | 48 | 319 | 3.0 | 7.0 | 0.00 | 0.00 | 0.00 | 99 | 1020.0 |
| 20260901052004 | 48 | 338 | 4.0 | 8.0 | 0.00 | 0.00 | 0.00 | 99 | 1019.7 |
| 20260901051004 | 48 | 334 | 4.0 | 12.0 | 0.00 | 0.00 | 0.00 | 99 | 1019.7 |
| 20260901050003 | 48 | 331 | 2.0 | 7.0 | 0.00 | 0.00 | 0.00 | 99 | 1019.6 |
| 20260901045003 | 48 | 304 | 3.0 | 7.0 | 0.00 | 0.00 | 0.00 | 99 | 1019.8 |
| 20260901044003 | 48 | 326 | 3.0 | 6.0 | 0.00 | 0.00 | 0.00 | 99 | 1019.7 |
| 20260901043003 | 48 | 319 | 2.0 | 6.0 | 0.00 | 0.00 | 0.00 | 99 | 1019.6 |
| 20260901042009 | 49 | 343 | 6.0 | 13.0 | 0.00 | 0.00 | 0.00 | 99 | 1019.5 |
| 20260901041008 | 49 | 336 | 4.0 | 8.0 | 0.00 | 0.00 | 0.00 | 99 | 1019.7 |
| 20260901040003 | 49 | 297 | 4.0 | 10.0 | 0.00 | 0.00 | 0.00 | 99 | 1019.6 |
| 20260901035009 | 49 | 318 | 4.0 | 9.0 | 0.00 | 0.00 | 0.00 | 99 | 1019.6 |
| 20260901034004 | 49 | 292 | 2.0 | 6.0 | 0.00 | 0.00 | 0.00 | 99 | 1019.8 |
| 20260901033003 | 48 | 308 | 1.0 | 4.0 | 0.00 | 0.00 | 0.00 | 99 | 1019.7 |
| 20260901032003 | 49 | 323 | 3.0 | 5.0 | 0.00 | 0.00 | 0.00 | 99 | 1019.7 |
| 20260901031003 | 48 | 323 | 3.0 | 5.0 | 0.00 | 0.00 | 0.00 | 99 | 1019.6 |
| 20260901030003 | 48 | 329 | 3.0 | 5.0 | 0.00 | 0.00 | 0.00 | 99 | 1019.6 |
| 20260901025217 | 48 | 333 | 3.0 | 4.0 | 0.00 | 0.00 | 0.00 | 99 | 1019.7 |
| 20260901024004 | 48 | 333 | 3.0 | 6.0 | 0.00 | 0.00 | 0.00 | 99 | 1019.6 |
| 20260901023217 | 48 | 334 | 3.0 | 5.0 | 0.00 | 0.00 | 0.00 | 99 | 1019.7 |
| 20260901022004 | 48 | 335 | 3.0 | 4.0 | 0.00 | 0.00 | 0.00 | 98 | 1019.8 |
| 20260901021003 | 48 | 334 | 3.0 | 5.0 | 0.00 | 0.00 | 0.00 | 98 | 1019.7 |
| 20260901020003 | 48 | 324 | 3.0 | 4.0 | 0.00 | 0.00 | 0.00 | 98 | 1019.7 |
| 20260901015004 | 48 | 322 | 3.0 | 5.0 | 0.00 | 0.00 | 0.00 | 98 | 1019.8 |
| 20260901014003 | 48 | 326 | 3.0 | 4.0 | 0.00 | 0.00 | 0.00 | 98 | 1019.8 |
| 20260901013008 | 48 | 325 | 3.0 | 5.0 | 0.00 | 0.00 | 0.00 | 98 | 1019.8 |
| 20260901012003 | 49 | 337 | 4.0 | 5.0 | 0.00 | 0.00 | 0.00 | 98 | 1019.7 |
| 20260901011004 | 49 | 334 | 4.0 | 6.0 | 0.00 | 0.00 | 0.00 | 98 | 1019.9 |
| 20260901010005 | 49 | 334 | 3.0 | 6.0 | 0.00 | 0.00 | 0.00 | 98 | 1019.6 |
| 20260901005008 | 49 | 325 | 3.0 | 6.0 | 0.00 | 0.00 | 0.00 | 98 | 1019.6 |
| 20260901004007 | 49 | 327 | 3.0 | 5.0 | 0.00 | 0.00 | 0.00 | 98 | 1019.6 |
| 20260901003004 | 49 | 324 | 3.0 | 5.0 | 0.00 | 0.00 | 0.00 | 97 | 1019.5 |
| 20260901002003 | 49 | 323 | 3.0 | 4.0 | 0.00 | 0.00 | 0.00 | 97 | 1019.6 |
| 20260901001222 | 49 | 325 | 3.0 | 4.0 | 0.00 | 0.01 | 0.00 | 97 | 1019.6 |
| 20260901000009 | 49 | 327 | 2.0 | 4.0 | 0.00 | 0.01 | 0.00 | 97 | 1019.4 |
| 20260831235009 | 49 | 325 | 2.0 | 4.0 | 0.00 | 0.02 | 0.00 | 97 | 1019.5 |
| 20260831234008 | 49 | 329 | 2.0 | 4.0 | 0.00 | 0.04 | 0.00 | 96 | 1019.5 |
| 20260831233222 | 49 | 329 | 2.0 | 4.0 | 0.00 | 0.06 | 0.00 | 96 | 1019.4 |
| 20260831232008 | 50 | 328 | 3.0 | 4.0 | 0.00 | 0.06 | 0.00 | 95 | 1019.5 |
| 20260831231003 | 50 | 326 | 3.0 | 5.0 | 0.00 | 0.06 | 0.00 | 95 | 1019.5 |
| 20260831230003 | 50 | 322 | 3.0 | 5.0 | 0.00 | 0.08 | 0.00 | 94 | 1019.4 |
| 20260831225224 | 50 | 326 | 3.0 | 4.0 | 0.00 | 0.11 | 0.08 | 94 | 1019.4 |
| 20260831224008 | 51 | 323 | 3.0 | 5.0 | 0.00 | 0.15 | 0.08 | 94 | 1019.5 |
| 20260831223217 | 51 | 318 | 3.0 | 5.0 | 0.00 | 0.17 | 0.08 | 94 | 1019.4 |
| 20260831222003 | 51 | 325 | 3.0 | 4.0 | 0.00 | 0.19 | 0.08 | 93 | 1019.2 |
| 20260831221217 | 51 | 323 | 2.0 | 4.0 | 0.00 | 0.19 | 0.08 | 93 | 1019.2 |
| 20260831220008 | 51 | 322 | 2.0 | 3.0 | 0.00 | 0.19 | 0.08 | 92 | 1019.3 |
| 20260831215008 | 52 | 321 | 2.0 | 4.0 | 0.00 | 0.19 | 0.08 | 92 | 1019.3 |
| 20260831214008 | 52 | 320 | 3.0 | 4.0 | 0.00 | 0.19 | 0.08 | 91 | 1019.3 |
| 20260831213008 | 52 | 322 | 2.0 | 4.0 | 0.00 | 0.19 | 0.08 | 89 | 1019.3 |
| 20260831212013 | 53 | 322 | 2.0 | 3.0 | 0.00 | 0.19 | 0.08 | 89 | 1019.2 |
| 20260831211008 | 53 | 324 | 3.0 | 5.0 | 0.00 | 0.19 | 0.08 | 88 | 1019.1 |
| 20260831210004 | 54 | 323 | 3.0 | 5.0 | 0.00 | 0.19 | 0.08 | 87 | 1019.0 |
| 20260831205223 | 54 | 319 | 3.0 | 7.0 | 0.00 | 0.19 | 0.08 | 87 | 1019.1 |
| 20260831204003 | 54 | 316 | 3.0 | 7.0 | 0.00 | 0.19 | 0.08 | 87 | 1019.1 |
| 20260831203004 | 54 | 323 | 3.0 | 6.0 | 0.00 | 0.19 | 0.08 | 87 | 1018.8 |
| 20260831202008 | 54 | 317 | 3.0 | 6.0 | 0.00 | 0.19 | 0.08 | 87 | 1018.8 |
| 20260831201003 | 54 | 320 | 3.0 | 5.0 | 0.00 | 0.19 | 0.08 | 86 | 1018.5 |
| 20260831200008 | 54 | 316 | 3.0 | 7.0 | 0.00 | 0.19 | 0.08 | 86 | 1018.5 |
| 20260831195008 | 54 | 320 | 3.0 | 7.0 | 0.00 | 0.19 | 0.08 | 85 | 1018.3 |
| 20260831194219 | 54 | 321 | 3.0 | 7.0 | 0.00 | 0.19 | 0.08 | 85 | 1018.3 |
| 20260831193008 | 54 | 322 | 3.0 | 6.0 | 0.00 | 0.19 | 0.08 | 84 | 1018.4 |
| 20260831192003 | 55 | 321 | 3.0 | 7.0 | 0.00 | 0.19 | 0.08 | 83 | 1018.2 |
| 20260831191009 | 55 | 319 | 3.0 | 6.0 | 0.00 | 0.19 | 0.08 | 82 | 1017.9 |
| 20260831190008 | 56 | 319 | 3.0 | 7.0 | 0.00 | 0.19 | 0.08 | 81 | 1018.0 |
| 20260831185008 | 56 | 314 | 3.0 | 8.0 | 0.00 | 0.19 | 0.08 | 80 | 1017.8 |
| 20260831184222 | 57 | 318 | 3.0 | 7.0 | 0.00 | 0.21 | 0.08 | 79 | 1018.0 |
| 20260831183009 | 57 | 320 | 4.0 | 8.0 | 0.00 | 0.26 | 0.08 | 78 | 1017.8 |
| 20260831182008 | 58 | 313 | 3.0 | 8.0 | 0.00 | 0.26 | 0.08 | 76 | 1017.6 |
| 20260831181011 | 58 | 309 | 4.0 | 8.0 | 0.00 | 0.26 | 0.08 | 76 | 1017.6 |
| 20260831180222 | 58 | 315 | 4.0 | 7.0 | 0.00 | 0.26 | 0.08 | 76 | 1017.4 |
| 20260831175008 | 58 | 315 | 4.0 | 8.0 | 0.00 | 0.26 | 0.08 | 73 | 1017.4 |
| 20260831174008 | 59 | 313 | 4.0 | 10.0 | 0.00 | 0.26 | 0.08 | 73 | 1017.0 |
| 20260831173008 | 59 | 313 | 4.0 | 11.0 | 0.00 | 0.26 | 0.08 | 71 | 1017.0 |
| 20260831172008 | 60 | 318 | 4.0 | 10.0 | 0.00 | 0.26 | 0.08 | 69 | 1016.8 |
| 20260831171224 | 61 | 314 | 4.0 | 8.0 | 0.00 | 0.26 | 0.08 | 67 | 1016.8 |
| 20260831170217 | 62 | 323 | 4.0 | 10.0 | 0.00 | 0.26 | 0.08 | 66 | 1016.8 |
| 20260831165003 | 62 | 321 | 4.0 | 10.0 | 0.00 | 0.26 | 0.08 | 67 | 1016.7 |
| 20260831164009 | 63 | 312 | 5.0 | 13.0 | 0.00 | 0.26 | 0.08 | 63 | 1016.7 |
| 20260831163217 | 63 | 313 | 5.0 | 12.0 | 0.00 | 0.26 | 0.08 | 63 | 1016.5 |
| 20260831162004 | 62 | 313 | 5.0 | 10.0 | 0.00 | 0.26 | 0.08 | 67 | 1016.4 |
| 20260831161008 | 63 | 319 | 4.0 | 9.0 | 0.00 | 0.26 | 0.08 | 65 | 1016.5 |
| 20260831160003 | 64 | 314 | 5.0 | 15.0 | 0.00 | 0.27 | 0.08 | 65 | 1016.4 |
| 20260831155008 | 64 | 316 | 4.0 | 11.0 | 0.00 | 0.32 | 0.08 | 69 | 1016.2 |
| 20260831154003 | 63 | 316 | 4.0 | 10.0 | 0.00 | 0.32 | 0.08 | 70 | 1016.1 |
| 20260831153003 | 62 | 313 | 5.0 | 10.0 | 0.00 | 0.32 | 0.08 | 68 | 1015.9 |
| 20260831152008 | 61 | 315 | 4.0 | 11.0 | 0.00 | 0.32 | 0.08 | 72 | 1015.9 |
| 20260831151008 | 61 | 314 | 5.0 | 13.0 | 0.00 | 0.32 | 0.08 | 72 | 1015.7 |
| 20260831150010 | 61 | 321 | 5.0 | 12.0 | 0.00 | 0.32 | 0.08 | 71 | 1015.7 |
| 20260831145008 | 62 | 317 | 5.0 | 14.0 | 0.00 | 0.32 | 0.08 | 71 | 1015.2 |
| 20260831144008 | 62 | 302 | 5.0 | 13.0 | 0.00 | 0.32 | 0.08 | 70 | 1015.2 |
| 20260831143008 | 62 | 317 | 5.0 | 9.0 | 0.00 | 0.32 | 0.08 | 72 | 1015.0 |
| 20260831142008 | 63 | 319 | 5.0 | 12.0 | 0.00 | 0.32 | 0.08 | 71 | 1014.9 |
| 20260831141220 | 64 | 311 | 5.0 | 11.0 | 0.00 | 0.32 | 0.08 | 69 | 1015.0 |
| 20260831140222 | 66 | 312 | 5.0 | 12.0 | 0.00 | 0.32 | 0.08 | 65 | 1014.9 |
| 20260831135008 | 64 | 316 | 5.0 | 14.0 | 0.00 | 0.32 | 0.08 | 70 | 1014.8 |
| 20260831134222 | 65 | 318 | 6.0 | 16.0 | 0.00 | 0.32 | 0.08 | 65 | 1014.6 |
| 20260831133008 | 64 | 304 | 5.0 | 10.0 | 0.00 | 0.32 | 0.08 | 67 | 1014.4 |
| 20260831132009 | 64 | 320 | 5.0 | 12.0 | 0.00 | 0.32 | 0.08 | 68 | 1014.4 |
| 20260831131006 | 65 | 319 | 6.0 | 15.0 | 0.00 | 0.32 | 0.08 | 66 | 1014.1 |
| 20260831130218 | 65 | 315 | 5.0 | 13.0 | 0.00 | 0.32 | 0.08 | 68 | 1014.0 |
| 20260831125008 | 65 | 311 | 5.0 | 10.0 | 0.00 | 0.32 | 0.08 | 68 | 1013.8 |
| 20260831124003 | 65 | 323 | 6.0 | 16.0 | 0.00 | 0.32 | 0.08 | 70 | 1013.7 |
| 20260831123003 | 65 | 319 | 5.0 | 14.0 | 0.00 | 0.32 | 0.08 | 68 | 1013.6 |
| 20260831122217 | 65 | 322 | 5.0 | 14.0 | 0.00 | 0.32 | 0.08 | 69 | 1013.3 |
| 20260831121003 | 65 | 312 | 5.0 | 12.0 | 0.00 | 0.32 | 0.08 | 72 | 1013.0 |
| 20260831120223 | 65 | 320 | 5.0 | 11.0 | 0.00 | 0.32 | 0.08 | 74 | 1013.1 |
| 20260831115003 | 64 | 323 | 5.0 | 11.0 | 0.00 | 0.32 | 0.08 | 75 | 1012.9 |
| 20260831114003 | 65 | 317 | 5.0 | 14.0 | 0.00 | 0.32 | 0.08 | 75 | 1012.7 |
| 20260831113008 | 65 | 309 | 5.0 | 13.0 | 0.00 | 0.32 | 0.08 | 74 | 1012.7 |
| 20260831112004 | 64 | 314 | 5.0 | 14.0 | 0.00 | 0.32 | 0.08 | 77 | 1012.4 |
| 20260831111008 | 63 | 314 | 5.0 | 11.0 | 0.00 | 0.32 | 0.08 | 81 | 1012.5 |
| 20260831110008 | 60 | 321 | 4.0 | 10.0 | 0.00 | 0.32 | 0.08 | 84 | 1012.5 |
| 20260831105008 | 61 | 312 | 5.0 | 11.0 | 0.00 | 0.32 | 0.08 | 82 | 1012.0 |
| 20260831104008 | 63 | 322 | 5.0 | 9.0 | 0.00 | 0.32 | 0.08 | 81 | 1011.9 |
| 20260831103003 | 62 | 321 | 5.0 | 12.0 | 0.00 | 0.32 | 0.08 | 83 | 1011.6 |
| 20260831102008 | 63 | 312 | 5.0 | 11.0 | 0.00 | 0.32 | 0.08 | 84 | 1011.5 |
| 20260831101003 | 61 | 316 | 4.0 | 12.0 | 0.00 | 0.32 | 0.08 | 86 | 1011.3 |
| 20260831100008 | 61 | 319 | 4.0 | 10.0 | 0.00 | 0.32 | 0.08 | 86 | 1011.5 |
| 20260831095008 | 62 | 326 | 5.0 | 15.0 | 0.00 | 0.33 | 0.08 | 89 | 1011.2 |
| 20260831094009 | 59 | 321 | 5.0 | 13.0 | 0.00 | 0.34 | 0.08 | 92 | 1011.1 |
| 20260831093003 | 58 | 332 | 5.0 | 12.0 | 0.00 | 0.34 | 0.08 | 95 | 1010.9 |
| 20260831092003 | 58 | 322 | 4.0 | 9.0 | 0.00 | 0.34 | 0.08 | 99 | 1010.8 |
| 20260831091005 | 57 | 325 | 4.0 | 9.0 | 0.00 | 0.34 | 0.08 | 99 | 1010.6 |
| 20260831090004 | 58 | 325 | 4.0 | 10.0 | 0.00 | 0.34 | 0.08 | 99 | 1010.4 |
| 20260831085008 | 57 | 333 | 5.0 | 11.0 | 0.00 | 0.34 | 0.08 | 99 | 1010.2 |
| 20260831084009 | 57 | 328 | 4.0 | 10.0 | 0.00 | 0.34 | 0.08 | 99 | 1010.1 |
| 20260831083003 | 57 | 329 | 4.0 | 9.0 | 0.00 | 0.34 | 0.08 | 99 | 1009.8 |
| 20260831082003 | 55 | 329 | 4.0 | 7.0 | 0.00 | 0.34 | 0.08 | 99 | 1009.8 |
| 20260831081003 | 55 | 324 | 4.0 | 8.0 | 0.00 | 0.34 | 0.08 | 99 | 1009.8 |
| 20260831080004 | 55 | 322 | 4.0 | 8.0 | 0.00 | 0.34 | 0.08 | 99 | 1009.4 |